COSMOS 2251 DEB, 34998

Orbit data source: Space-Track

COSMOS 2251 DEB, 34998 is space debris in LEO originally from a launch on Wed, 16 Jun 1993 UTC launched from the Plesetsk Missile And Space Complex (PKMTR). The debris from Iridium 33, an American commercial communications satellite, has been tracked extensively since its accidental collision with the defunct Russian satellite Cosmos 2251 in 2009. This event, occurring at high speed in low Earth orbit (LEO), generated thousands of pieces of space debris, significantly increasing the risk of further collisions. The Iridium 33 debris cloud has impacted space traffic management and orbital debris mitigation strategies, making it a subject of ongoing study in space situational awareness.

Loading next visibility...
Identifier
34998, 1993-036AFW
Orbit
LEO
Country
Flag of CISCIS
Related business
Manufacturer
Unknown
Mission
Spacecraft
Bus & Motor
Unknown
Mass
Unknown
Launch date (UTC)
1993-06-16 (33 years ago)
Launch vehicle
Unknown
Launch site
Plesetsk Missile And Space Complex (PKMTR)
Object type
Payload
Rocket body
Debris
Shape & HBR
Unknown shape, 0.1 m
Radar Cross Section
Small (<0.1 m²)

Expand to show TLE details & history
Last TLE update: 17 hours ago

TLE from 17 hours ago
0 COSMOS 2251 DEB
1 34998U 93036AFW 26035.51948810  .00002018  00000-0  53152-3 0  9996
2 34998  74.0093  58.9310 0020943 198.8564 313.9258 14.49574024881999
Epoch: 2026-02-04T12:28Z
TLE epoch observation values (Epoch: 2026-02-04T12:28:03.771Z)
Latitude
26.29012°
Longitude
-90.86437°
Altitude
719.629 km
Speed
7.504 km/s
True Right ascension
15h 23m 20s
True Declination
26° 09' 11"
Sunlit
Object was in daylight at epoch
Visualization orbit readout
Latitude
Unknown
Longitude
Unknown
Altitude
Unknown
Speed
Unknown
Apparent Right ascension
Unknown
Apparent Declination
Unknown
Sunlit
N/A
Visualization observer readout
Local Sidereal Time
07:15:55
Azimuth
Unknown
Elevation
Unknown
Doppler factor
Unknown
Orbital elements
Apogee altitude
739.527 km
Perigee altitude
709.776 km
Semi-major axis
7,102.788 km
Eccentricity
0.00209
Inclination
74.0093°
RAAN
58.931°
Arg. of periapsis
198.8564°
True anomaly
313.75264°
Mean anomaly
313.9258°
Eccentric anomaly
313.83925°
Mean motion
3.62577 °/min
Orbital period
99.29 mins
BSTAR
0.00053152
Loading maneuver chart data...
Computing Atmospheric mass density...

Documentation

Showing up to 5 results
|